sat.trackr.live / text

‹ back to catalog

STARLINK-32182

NORAD 60319 · 2024-133U

PAYLOAD ACTIVE UNKNOWN

§ Identity

Operator
Country
US
Launch date
2024-07-28
Launch site
AFWTR
Launch vehicle
Mass (kg)
RCS (m²)

Purposes: comms

External: N2YO · Heavens-Above · Gunter

§ Orbital elements

Epoch: 2026-05-25T03:06:52.413984Z

Period
94.11 min
Inclination
53.1609°
Eccentricity
0.0001001
Mean motion
15.30196325 rev/d
Perigee alt
474.5 km
Apogee alt
475.9 km
Semi-major
6,853.4 km
B*
3.7831e-5
RAAN
302.0065°
Arg perigee
85.8265°
Mean anomaly
274.2851°
Rev number
10,334

§ Raw data

STARLINK-321821 60319U 24133U   26145.12977331  .00000761  00000+0  37831-4 0  99922 60319  53.1609 302.0065 0001001  85.8265 274.2851 15.30196325103342

JSON: /api/v1/satellites/60319 · /tle

For live sub-satellite position, see the globe view (requires WebGL).

§ Visibility from observer

Set your observer location to see the next 7 days of passes ≥ 10°. The values pass through the URL so the page stays shareable.

No JS? Fill the form by hand. The geolocation button needs JavaScript.